Regional Weather Roundup
Issued by NWS

Home | Current Version | Previous Version | Text Only | Print | Product List | Glossary Off
Versions: 1 2 3 4 5 6 7 8 9 10 11 12 13 14 15 16 17 18 19 20 21 22 23 24 25 26 27 28 29 30 31 32 33 34 35 36 37 38 39 40 41 42 43 44 45 46 47 48 49 50

000
ASUS43 KDTX 312301
RWRMI
MICHIGAN HOURLY REGIONAL WEATHER ROUNDUP
NATIONAL WEATHER SERVICE DETROIT/PONTIAC MI
700 PM EDT WED AUG 31 2016

NOTE: "FAIR" INDICATES FEW OR NO CLOUDS BELOW 12,000 FEET WITH NO
SIGNIFICANT WEATHER AND/OR OBSTRUCTION TO VISIBILITY.

MIZ047>049-052>055-059>063-066>070-074>076-081>083-010000-
SOUTHEAST LOWER MICHIGAN

CITY           SKY/WX    TMP DP  RH WIND       PRES   REMARKS
ADRIAN         MOSUNNY   74  63  68 NE12      30.00R
ALMA           MOSUNNY   74  56  53 N9        30.03S
ANN ARBOR      CLOUDY    74  56  53 N12       29.99R
BAD AXE        SUNNY     68  55  62 NE7       30.03S
CARO           SUNNY     70  54  57 N3        30.02S
DETROIT CITY   MOSUNNY   76  57  51 N12       29.98S
DETROIT        MOSUNNY   76  57  51 N13       29.98R
FLINT          SUNNY     72  55  55 NE12      30.02R
GROSSE ILE     CLOUDY    76  61  60 NE12      29.96S
HILLSDALE      CLOUDY    73  60  64 N6        30.01R
HOWELL         SUNNY     72  56  57 N6        30.02R

CITY           SKY/WX    TMP DP  RH WIND       PRES   REMARKS
JACKSON        SUNNY     73  58  59 NE8       30.01S
LAMBERTVILLE   PTSUNNY   76  64  66 N5        29.98S
LANSING        MOSUNNY   74  57  55 NE8       30.02S
LAPEER         FAIR      70  56  59 N7        30.02S
MASON          MOSUNNY   72  60  65 NE5       30.02R
MONROE         MOSUNNY   76  66  70 N10G16    29.96S
MT. CLEMENS    MOSUNNY   71  61  68 N13       29.97S
PONTIAC        PTSUNNY   72  56  57 N13       29.99S
PORT HOPE        N/A     71  57  61 N7G18     30.01F
PORT HURON     SUNNY     70  57  64 N9G16     30.00S
TRI CITIES     MOSUNNY   73  60  63 NE8       30.03S
MIDLAND        PTSUNNY   71  60  66 NE3       30.02S
TROY           SUNNY     76  55  48 N12G17    30.01S
SAGINAW HB     PTSUNNY   72  55  56 NE5       30.02S
$$
MIZ043>046-050>051-056>058-064>065-071>073-077>080-010000-
SOUTHWEST LOWER MICHIGAN

CITY           SKY/WX    TMP DP  RH WIND       PRES   REMARKS
BATTLE CREEK   MOSUNNY   73  57  57 N9        30.03R
BENTON HARBOR  SUNNY     73  60  63 VRB5      30.03F
BIG RAPIDS     MOSUNNY   73  47  39 N8        30.06S
COLDWATER      CLOUDY    74  60  62 N8        30.01S
FREMONT        FAIR      72  47  40 N9G16     30.06R
HOLLAND        SUNNY     76  57  51 N8        30.04S
GRAND RAPIDS   MOSUNNY   75  55  49 N14       30.03S
IONIA          FAIR      72  55  54 N6        30.02S
KALAMAZOO      MOSUNNY   74  56  53 N9        30.02R
LUDINGTON      SUNNY     70  57  63 N12       30.08S
MARSHALL       MOSUNNY   74  58  57 N3        30.02R
MOUNT PLEASANT PTSUNNY   73  55  52 N5        30.03S
MUSKEGON       MOSUNNY   75  54  47 N14G20    30.05S
SOUTH HAVEN    SUNNY     74  64  70 N10G21    30.03S
$$
MIZ016>042-010000-
NORTHERN LOWER MICHIGAN

CITY           SKY/WX    TMP DP  RH WIND       PRES   REMARKS
ALPENA         MOSUNNY   72  48  42 N16G22    30.04S
BEAVER ISLAND  PTSUNNY   67  55  65 N8        30.10R
BELLAIRE       CLOUDY    69  54  58 N3        30.08S
CADILLAC       PTSUNNY   68  52  56 N6        30.09R
CHARLEVOIX     CLOUDY    69  55  59 N10G20    30.11R
FRANKFORT      CLOUDY    71  55  56 N7        30.09S
GAYLORD        CLOUDY    68  50  52 VRB3      30.08S
GRAYLING       CLOUDY    69  54  59 NW6       30.08S
HARBOR SPRINGS CLOUDY    71  54  56 NW9       30.07S
HOUGHTON LAKE  CLOUDY    69  52  54 NW10      30.08R
MANISTEE       SUNNY     71  56  58 N7        30.08S
OSCODA         CLOUDY    70  56  62 NW9       30.02F
PELLSTON       CLOUDY    71  52  50 N14G23    30.07S
ROGERS CITY    SUNNY     70  55  58 NW12G17   30.05S
TRAVERSE CITY  PTSUNNY   71  53  52 N6        30.07S
$$
MIZ007>008-015-010000-
EASTERN UPPER MICHIGAN

CITY           SKY/WX    TMP DP  RH WIND       PRES   REMARKS
KINROSS        MOSUNNY   66  55  67 NW17      30.07S
MACKINAC ISLAN SUNNY     68  54  60 NW9       30.06S
NEWBERRY       MOSUNNY   65  53  66 NW9       30.10S HAZE
S. S. MARIE    CLOUDY    65  57  75 NW16      30.06S
MUNISING         N/A     65  59  81 N15       30.13S
$$
MIZ004>006-011>014-085-010000-
CENTRAL UPPER MICHIGAN

CITY           SKY/WX    TMP DP  RH WIND       PRES   REMARKS
MANISTIQUE     CLOUDY    66  55  69 N7G16     30.11S
ESCANABA       CLOUDY    67  56  67 N7        30.12R
MENOMINEE      CLOUDY   N/A N/A N/A MISG      30.13R
SAWYER-GWINN   RAIN      59  57  94 N7        30.16R
$$
MIZ001>003-009>011-084-010000-
WESTERN UPPER MICHIGAN

CITY           SKY/WX    TMP DP  RH WIND       PRES   REMARKS
IRON MOUNTAIN  CLOUDY    68  53  58 N6        30.14R
HOUGHTON       PTSUNNY   64  54  69 NW9       30.16S
COPPER HARBOR    N/A     64  58  80 NE14      30.15S
IRONWOOD       CLOUDY    66  54  65 N7        30.20S
$$

ABBREVIATIONS USED IN REMARKS
   TC - TEMPERATURE IN CELSIUS
  WCI - WIND CHILL INDEX
   HX - HEAT INDEX
  VSB - VISIBILITY




USA.gov is the U.S. government's official web portal to all federal, state and local government web resources and services.